Weather History for Scottsdale, AZ

Change the Weather History Date:

Saturday, April 5, 2014

  Actual Average Record
Temperature  
Mean Temperature 64 °F -  
Max Temperature 73 °F 73 °F 89 °F (2007)
Min Temperature 55 °F 51 °F 41 °F (1999)
Degree Days  
Heating Degree Days 1    
Growing Degree Days 14 (Base 50)    
Moisture  
Dew Point 22 °F    
Average Humidity 19    
Maximum Humidity 31    
Minimum Humidity 12    
Precipitation  
Precipitation 0.00 in - - ()
Sea Level Pressure  
Sea Level Pressure 29.80 in    
Wind  
Wind Speed 2 mph (West)    
Max Wind Speed 10 mph    
Max Gust Speed 18 mph    
Visibility 10 miles    
Events      
Averages and records for this station are not official NWS values.
T = Trace of Precipitation, MM = Missing Value Source: NWS Daily Summary

Daily Weather History Graph

Daily Weather History Graph

Search for Another Location

Airport:

Trip Planner

Search our weather history database for the weather conditions in past years. The results will help you decide how hot, cold, wet, or windy it might be!

Date:

Astronomy

Apr. 05, 2014 Rise Set
Actual Time 6:09 AM MST 6:51 PM MST
Civil Twilight 5:44 AM MST 7:16 PM MST
Nautical Twilight 5:15 AM MST 7:46 PM MST
Astronomical Twilight 4:44 AM MST 8:16 PM MST
Moon 10:30 AM MST (4/5) No Moon Set
Length of Visible Light 13h 31m
Length of Day
12h 41m
Waxing Crescent, 35% of the Moon is Illuminated
Apr 5
Waxing Crescent
Apr 7
First Quarter
Apr 15
Full
Apr 22
Last Quarter
Apr 28
New

Hourly Weather History & Observations

Time (MST) Temp. Dew Point Humidity Pressure Visibility Wind Dir Wind Speed Gust Speed Precip Events Conditions
12:53 AM 61.0 °F 26.1 °F 26% 29.76 in 10.0 mi Calm Calm - N/A   Clear
1:53 AM 62.1 °F 21.0 °F 21% 29.75 in 10.0 mi Calm Calm - N/A   Clear
2:53 AM 61.0 °F 21.9 °F 22% 29.74 in 10.0 mi Calm Calm - N/A   Clear
3:53 AM 60.1 °F 19.0 °F 20% 29.74 in 10.0 mi Calm Calm - N/A   Clear
4:53 AM 57.9 °F 21.0 °F 24% 29.75 in 10.0 mi North 3.5 mph - N/A   Clear
5:53 AM 57.9 °F 21.9 °F 25% 29.76 in 10.0 mi Calm Calm - N/A   Clear
6:53 AM 55.0 °F 25.0 °F 31% 29.80 in 10.0 mi Calm Calm - N/A   Clear
7:53 AM 60.1 °F 24.1 °F 25% 29.81 in 10.0 mi Calm Calm - N/A   Clear
8:53 AM 63.0 °F 24.1 °F 23% 29.83 in 10.0 mi Variable 3.5 mph - N/A   Partly Cloudy
9:53 AM 66.0 °F 23.0 °F 20% 29.83 in 10.0 mi Calm Calm - N/A   Clear
10:53 AM 68.0 °F 23.0 °F 18% 29.83 in 10.0 mi Calm Calm - N/A   Mostly Cloudy
11:53 AM 71.1 °F 24.1 °F 17% 29.82 in 10.0 mi West 4.6 mph - N/A   Clear
12:53 PM 72.0 °F 19.9 °F 14% 29.81 in 10.0 mi NW 3.5 mph - N/A   Clear
1:53 PM 73.9 °F 18.0 °F 12% 29.79 in 10.0 mi WSW 10.4 mph - N/A   Clear
2:53 PM 73.9 °F 19.0 °F 13% 29.78 in 10.0 mi Variable 4.6 mph - N/A   Clear
3:53 PM 73.9 °F 19.0 °F 13% 29.77 in 10.0 mi SW 8.1 mph 16.1 mph N/A   Clear
4:53 PM 73.9 °F 21.0 °F 14% 29.77 in 10.0 mi WSW 10.4 mph 18.4 mph N/A   Clear
5:53 PM 73.0 °F 19.9 °F 14% 29.78 in 10.0 mi Variable 5.8 mph - N/A   Clear
6:53 PM 71.1 °F 19.9 °F 14% 29.80 in 10.0 mi WSW 6.9 mph - N/A   Clear
7:53 PM 70.0 °F 21.0 °F 16% 29.81 in 10.0 mi SW 4.6 mph - N/A   Clear
8:53 PM 68.0 °F 21.9 °F 17% 29.83 in 10.0 mi Calm Calm - N/A   Clear
9:53 PM 66.9 °F 21.9 °F 18% 29.85 in 10.0 mi Calm Calm - N/A   Clear
10:53 PM 64.0 °F 23.0 °F 21% 29.86 in 10.0 mi Calm Calm - N/A   Clear
11:53 PM 64.0 °F 24.1 °F 22% 29.88 in 10.0 mi Calm Calm - N/A   Clear